Memphis, TN

6:09 PM CDT on September 25, 2016 (GMT -0500)
Memphis International

Weather History for KMEM - February, 2014

Change the Weather History Date:

Monday, February 10, 2014

  Actual Average Record
Temperature  
Mean Temperature 32 °F 44 °F  
Max Temperature 37 °F 53 °F 77 °F (1932)
Min Temperature 26 °F 35 °F 0 °F (1899)
Degree Days  
Heating Degree Days 33 21  
Month to date heating degree days 302 218  
Since 1 July heating degree days 2463 2120  
Cooling Degree Days 0 0  
Month to date cooling degree days 0 0  
Year to date cooling degree days 0 1  
Moisture  
Dew Point 20 °F    
Average Humidity 65    
Maximum Humidity 85    
Minimum Humidity 44    
Precipitation  
Precipitation 0.00 in 0.15 in 1.83 in (1998)
Month to date precipitation 4.50 1.52  
Year to date precipitation 7.66 5.50  
Snow  
Snow 0.00 in 0.10 in 3.20 in (2006)
Month to date snowfall 0.3 0.6  
Since 1 July snowfall 0.3 2.7  
Snow Depth 0.00 in    
Sea Level Pressure  
Sea Level Pressure 30.29 in    
Wind  
Wind Speed 13 mph (NNE)    
Max Wind Speed 21 mph    
Max Gust Speed 25 mph    
Visibility 10 miles    
Events      
T = Trace of Precipitation, MM = Missing Value Source: NWS Daily Summary

Daily Weather History Graph

Daily Weather History Graph

Search for Another Location

Airport or City:

Trip Planner

Search our weather history database for the weather conditions in past years. The results will help you decide how hot, cold, wet, or windy it might be!

Date:

Astronomy

Feb. 10, 2014 Rise Set
Actual Time 6:51 AM CST 5:37 PM CST
Civil Twilight 6:24 AM CST 6:03 PM CST
Nautical Twilight 5:55 AM CST 6:33 PM CST
Astronomical Twilight 5:25 AM CST 7:03 PM CST
Moon 2:10 PM CST (2/10) 3:40 AM CST (2/10)
Length of Visible Light 11h 39m
Length of Day
10h 46m
Waxing Gibbous, 85% of the Moon is Illuminated
Feb 10
Waxing Gibbous
Feb 14
Full
Feb 22
Last Quarter
Mar 1
New
Mar 8
First Quarter

Hourly Weather History & Observations

Time (CST) Temp. Windchill Dew Point Humidity Pressure Visibility Wind Dir Wind Speed Gust Speed Precip Events Conditions
12:54 AM 33.1 °F 25.5 °F 27.0 °F 78% 30.22 in 10.0 mi NNE 9.2 mph - N/A   Overcast
1:54 AM 33.1 °F 25.5 °F 26.1 °F 75% 30.22 in 10.0 mi NNE 9.2 mph - N/A   Overcast
2:54 AM 30.9 °F 21.2 °F 26.1 °F 82% 30.22 in 8.0 mi North 12.7 mph - N/A   Overcast
3:54 AM 30.9 °F 23.5 °F 26.1 °F 82% 30.22 in 8.0 mi North 8.1 mph - N/A   Overcast
4:54 AM 30.0 °F 21.7 °F 25.0 °F 82% 30.23 in 9.0 mi North 9.2 mph - N/A   Overcast
5:54 AM 28.9 °F 18.6 °F 23.0 °F 78% 30.28 in 9.0 mi NNE 12.7 mph - N/A   Overcast
6:54 AM 28.0 °F 17.5 °F 21.9 °F 78% 30.29 in 9.0 mi NNE 12.7 mph - N/A   Overcast
7:54 AM 28.0 °F 18.1 °F 21.0 °F 75% 30.32 in 10.0 mi NNE 11.5 mph - N/A   Overcast
8:08 AM 28.4 °F 19.1 °F 21.2 °F 74% 30.31 in 9.0 mi NNE 10.4 mph - N/A   Overcast
8:54 AM 28.0 °F 18.1 °F 21.0 °F 75% 30.33 in 10.0 mi NNE 11.5 mph - N/A   Overcast
9:54 AM 28.0 °F 15.7 °F 19.9 °F 72% 30.32 in 10.0 mi NNE 17.3 mph - N/A   Overcast
10:01 AM 28.4 °F 15.8 °F 19.4 °F 69% 30.32 in 10.0 mi NNE 18.4 mph - N/A   Mostly Cloudy
10:54 AM 30.9 °F 19.8 °F 19.0 °F 61% 30.33 in 10.0 mi NE 16.1 mph - N/A   Mostly Cloudy
11:54 AM 32.0 °F 22.1 °F 17.1 °F 54% 30.31 in 10.0 mi NNE 13.8 mph - N/A   Mostly Cloudy
12:54 PM 35.1 °F 25.5 °F 17.1 °F 48% 30.29 in 10.0 mi NE 15.0 mph - N/A   Mostly Cloudy
1:54 PM 36.0 °F 28.0 °F 17.1 °F 46% 30.28 in 10.0 mi NE 11.5 mph - N/A   Mostly Cloudy
2:54 PM 36.0 °F 27.5 °F 15.1 °F 43% 30.27 in 10.0 mi NNE 12.7 mph - N/A   Mostly Cloudy
3:54 PM 35.1 °F 26.4 °F 17.1 °F 48% 30.27 in 10.0 mi NNE 12.7 mph - N/A   Mostly Cloudy
4:54 PM 30.9 °F 20.7 °F 21.0 °F 67% 30.28 in 10.0 mi North 13.8 mph - N/A   Overcast
5:54 PM 30.0 °F 20.0 °F 21.0 °F 69% 30.30 in 10.0 mi NNE 12.7 mph 20.7 mph N/A   Overcast
6:54 PM 28.0 °F 16.5 °F 19.9 °F 72% 30.31 in 10.0 mi NNE 15.0 mph - N/A   Overcast
7:54 PM 27.0 °F 16.7 °F 17.1 °F 66% 30.33 in 10.0 mi NNE 11.5 mph - N/A   Overcast
8:54 PM 26.1 °F 14.5 °F 15.1 °F 63% 30.33 in 10.0 mi NE 13.8 mph - N/A   Overcast
9:54 PM 27.0 °F 15.2 °F 14.0 °F 58% 30.32 in 10.0 mi NNE 15.0 mph 23.0 mph N/A   Overcast
10:54 PM 26.1 °F 14.5 °F 12.9 °F 58% 30.34 in 10.0 mi NNE 13.8 mph - N/A   Overcast
11:54 PM 26.1 °F 13.6 °F 12.9 °F 58% 30.33 in 10.0 mi NNE 16.1 mph 21.9 mph N/A   Overcast